Air Resources Laboratory banner image
Air Resources Laboratory web site National Oceanic and Atmospheric Administration (NOAA)

mo roundup


Office: LSX

ASUS43 KLSX 201807
RWRMO

WEATHER SUMMARY FOR MISSOURI
NATIONAL WEATHER SERVICE SPRINGFIELD MO
100 PM CDT MON AUG 20 2018

NOTE: "FAIR" INDICATES FEW OR NO CLOUDS BELOW 12,000 FEET WITH NO
       SIGNIFICANT WEATHER AND/OR OBSTRUCTIONS TO VISIBILITY.
       CURRENT SKY AND/OR WEATHER CONDITIONS ARE NOT AVAILABLE FOR
       CHILLICOTHE AND FARMINGTON.

MOZ001>031-035>038-043-044-053-054-201900-
...NORTHERN AND WESTERN MISSOURI...

CITY           SKY/WX    TMP DP  RH WIND       PRES   REMARKS
KANSAS CTY INT LGT RAIN  68  65  90 SW16G26   29.74F
6HR MIN TEMP:  67; 6HR MAX TEMP:  73; 6HR PCP:  0.01;

KANSAS C DTWN  CLOUDY    72  64  76 SW16G22   29.75S
6HR MIN TEMP:  69; 6HR MAX TEMP:  76; 6HR PCP:  0.01;

LEE'S SUMMIT   CLOUDY    73  65  75 W16G28    29.78S
6HR MIN TEMP:  67; 6HR MAX TEMP:  74;

ST JOSEPH      LGT RAIN  67  67 100 W18G30    29.67F FOG
6HR MIN TEMP:  67; 6HR MAX TEMP:  71; 6HR PCP: TRACE;

CHILLICOTHE      N/A     74  67  78 S13G23    29.69F
6HR MIN TEMP:  69; 6HR MAX TEMP:  74; 6HR PCP:  0.01;

KIRKSVILLE     CLOUDY    72  68  87 S12       29.73F
6HR MIN TEMP:  69; 6HR MAX TEMP:  73; 6HR PCP:  0.02;


$$
MOZ066>068-077>081-088>096-101>105-201900-
...SOUTHWEST MISSOURI...

CITY           SKY/WX    TMP DP  RH WIND       PRES   REMARKS
SPRINGFIELD    CLOUDY    76  64  66 W16G24    29.87F
6HR MIN TEMP:  66; 6HR MAX TEMP:  77; 6HR PCP:  0.01;

JOPLIN         PTSUNNY   78  66  66 W18G24    29.89F
6HR MIN TEMP:  68; 6HR MAX TEMP:  78;

BRANSON        PTSUNNY   73  70  88 NW6       29.91R

$$
MOZ032>034-039>042-045>050-055>058-069>072-201900-
...CENTRAL MISSOURI...

CITY           SKY/WX    TMP DP  RH WIND       PRES   REMARKS
COLUMBIA       PTSUNNY   80  66  62 SW16G26   29.78F
6HR MIN TEMP:  69; 6HR MAX TEMP:  80;

JEFFERSON CITY CLOUDY    79  65  62 SW12G21   29.78F
6HR MIN TEMP:  71; 6HR MAX TEMP:  80;

ROLLA          CLOUDY    79  66  64 SW14G23   29.82F
6HR MIN TEMP:  68; 6HR MAX TEMP:  79;

SEDALIA        CLOUDY    76  64  66 SW18G28   29.79F
6HR MIN TEMP:  69; 6HR MAX TEMP:  77;

WHITEMAN AFB   PTSUNNY   76  66  71 W18G24    29.74S
OSAGE BEACH    PTSUNNY   79  66  64 SW13      29.82F

$$
MOZ051-052-059>065-201900-
...EAST CENTRAL MISSOURI...

CITY           SKY/WX    TMP DP  RH WIND       PRES   REMARKS
ST LOUIS INTL  MOSUNNY   84  66  54 S16G24    29.80F
6HR MIN TEMP:  74; 6HR MAX TEMP:  84;

SPIRIT OF STL  MOSUNNY   84  67  56 SW13G20   29.78F
6HR MIN TEMP:  74; 6HR MAX TEMP:  84;

ST CHARLES     MOSUNNY   82  67  60 S14G24    29.78F
6HR MIN TEMP:  74; 6HR MAX TEMP:  82;


$$
MOZ072>076-082>087-097>100-106>115-201900-
...SOUTH CENTRAL AND SOUTHEAST MISSOURI...

CITY           SKY/WX    TMP DP  RH WIND       PRES   REMARKS
CAPE GIRARDEAU FAIR      82  72  71 SW14      29.85F
6HR MIN TEMP:  73; 6HR MAX TEMP:  83;

FARMINGTON     PTSUNNY   81  71  71 S10       29.85F
6HR MIN TEMP:  71; 6HR MAX TEMP:  82;

POPLAR BLUFF   FAIR      82  75  79 SW13G20   29.86F
6HR MIN TEMP:  72; 6HR MAX TEMP:  82;

WEST PLAINS    LGT RAIN  75  71  87 SW5       29.87F
6HR MIN TEMP:  72; 6HR MAX TEMP:  80; 6HR PCP:  0.08;


$$


ASUS43 KLSX 201810
RWRMO

WEATHER SUMMARY FOR MISSOURI
NATIONAL WEATHER SERVICE SPRINGFIELD MO
100 PM CDT MON AUG 20 2018

NOTE: "FAIR" INDICATES FEW OR NO CLOUDS BELOW 12,000 FEET WITH NO
       SIGNIFICANT WEATHER AND/OR OBSTRUCTIONS TO VISIBILITY.
       CURRENT SKY AND/OR WEATHER CONDITIONS ARE NOT AVAILABLE FOR
       CHILLICOTHE AND FARMINGTON.

MOZ001>031-035>038-043-044-053-054-201900-
...NORTHERN AND WESTERN MISSOURI...

CITY           SKY/WX    TMP DP  RH WIND       PRES   REMARKS
KANSAS CTY INT LGT RAIN  68  65  90 SW16G26   29.74F
6HR MIN TEMP:  67; 6HR MAX TEMP:  73; 6HR PCP:  0.01;

KANSAS C DTWN  CLOUDY    72  64  76 SW16G22   29.75S
6HR MIN TEMP:  69; 6HR MAX TEMP:  76; 6HR PCP:  0.01;

LEE'S SUMMIT   CLOUDY    73  65  75 W16G28    29.78S
6HR MIN TEMP:  67; 6HR MAX TEMP:  74;

ST JOSEPH      LGT RAIN  67  67 100 W18G30    29.67F FOG
6HR MIN TEMP:  67; 6HR MAX TEMP:  71; 6HR PCP: TRACE;

CHILLICOTHE      N/A     74  67  78 S13G23    29.69F
6HR MIN TEMP:  69; 6HR MAX TEMP:  74; 6HR PCP:  0.01;

KIRKSVILLE     CLOUDY    72  68  87 S12       29.73F
6HR MIN TEMP:  69; 6HR MAX TEMP:  73; 6HR PCP:  0.02;


$$
MOZ066>068-077>081-088>096-101>105-201900-
...SOUTHWEST MISSOURI...

CITY           SKY/WX    TMP DP  RH WIND       PRES   REMARKS
SPRINGFIELD    CLOUDY    76  64  66 W16G24    29.87F
6HR MIN TEMP:  66; 6HR MAX TEMP:  77; 6HR PCP:  0.01;

JOPLIN         PTSUNNY   78  66  66 W18G24    29.89F
6HR MIN TEMP:  68; 6HR MAX TEMP:  78;

BRANSON        PTSUNNY   73  70  88 NW6       29.91R

$$
MOZ032>034-039>042-045>050-055>058-069>072-201900-
...CENTRAL MISSOURI...

CITY           SKY/WX    TMP DP  RH WIND       PRES   REMARKS
COLUMBIA       PTSUNNY   80  66  62 SW16G26   29.78F
6HR MIN TEMP:  69; 6HR MAX TEMP:  80;

JEFFERSON CITY CLOUDY    79  65  62 SW12G21   29.78F
6HR MIN TEMP:  71; 6HR MAX TEMP:  80;

ROLLA          CLOUDY    79  66  64 SW14G23   29.82F
6HR MIN TEMP:  68; 6HR MAX TEMP:  79;

SEDALIA        CLOUDY    76  64  66 SW18G28   29.79F
6HR MIN TEMP:  69; 6HR MAX TEMP:  77;

WHITEMAN AFB   PTSUNNY   76  66  71 W18G24    29.74S
OSAGE BEACH    PTSUNNY   79  66  64 SW13      29.82F

$$
MOZ051-052-059>065-201900-
...EAST CENTRAL MISSOURI...

CITY           SKY/WX    TMP DP  RH WIND       PRES   REMARKS
ST LOUIS INTL  MOSUNNY   84  66  54 S16G24    29.80F
6HR MIN TEMP:  74; 6HR MAX TEMP:  84;

SPIRIT OF STL  MOSUNNY   84  67  56 SW13G20   29.78F
6HR MIN TEMP:  74; 6HR MAX TEMP:  84;

ST CHARLES     MOSUNNY   82  67  60 S14G24    29.78F
6HR MIN TEMP:  74; 6HR MAX TEMP:  82;


$$
MOZ072>076-082>087-097>100-106>115-201900-
...SOUTH CENTRAL AND SOUTHEAST MISSOURI...

CITY           SKY/WX    TMP DP  RH WIND       PRES   REMARKS
CAPE GIRARDEAU FAIR      82  72  71 SW14      29.85F
6HR MIN TEMP:  73; 6HR MAX TEMP:  83;

FARMINGTON     PTSUNNY   81  71  71 S10       29.85F
6HR MIN TEMP:  71; 6HR MAX TEMP:  82;

POPLAR BLUFF   FAIR      82  75  79 SW13G20   29.86F
6HR MIN TEMP:  72; 6HR MAX TEMP:  82;

WEST PLAINS    LGT RAIN  75  71  87 SW5       29.87F
6HR MIN TEMP:  72; 6HR MAX TEMP:  80; 6HR PCP:  0.08;


$$




Office: EAX ASUS43 KEAX 201810 RWREAX WEATHER ROUNDUP FOR EASTERN KANSAS AND NORTHWEST MISSOURI NATIONAL WEATHER SERVICE KANSAS CITY/PLEASANT HILL MO 100 PM CDT MON AUG 20 2018 KSZ040-057-103>105-MOZ028-029-037-043-201900- ...KANSAS CITY METROPOLITAN AREA... CITY SKY/WX TMP DP RH WIND PRES REMARKS K.C. INTL LGT RAIN 68 65 90 SW16G26 29.74F 6HR MIN TEMP: 67; 6HR MAX TEMP: 73; 6HR PCP: 0.01; K.C. DOWNTOWN CLOUDY 72 64 76 SW16G22 29.75S 6HR MIN TEMP: 69; 6HR MAX TEMP: 76; 6HR PCP: 0.01; LEES SUMMIT CLOUDY 73 65 75 W16G28 29.78S 6HR MIN TEMP: 67; 6HR MAX TEMP: 74; OLATHE - IXD LGT RAIN 69 67 93 W15G23 29.82S FOG 6HR MIN TEMP: 68; 6HR MAX TEMP: 73; 6HR PCP: 0.06; OLATHE - OJC LGT RAIN 68 66 93 W10G25 29.80S FOG 6HR MIN TEMP: 66; 6HR MAX TEMP: 71; 6HR PCP: 0.03; LAWRENCE CLOUDY 71 68 90 W20G30 29.80S $$ MOZ001>008-011>017-020>025-030>033-038>040-044>046-053-054-201900- ...NORTHERN AND CENTRAL MISSOURI... CITY SKY/WX TMP DP RH WIND PRES REMARKS ST. JOSEPH LGT RAIN 67 67 100 W18G30 29.67F FOG 6HR MIN TEMP: 67; 6HR MAX TEMP: 71; 6HR PCP: TRACE; MOSBY CLOUDY 72 64 78 SW15G21 29.74S WHITEMAN AFB PTSUNNY 76 66 71 W18G24 29.74S 6HR MIN TEMP: 67; 6HR MAX TEMP: 76; CLINTON CLOUDY 75 64 69 W14 29.81F SEDALIA CLOUDY 76 64 66 SW18G28 29.79F 6HR MIN TEMP: 69; 6HR MAX TEMP: 77; WARSAW NOT AVBL CHILLICOTHE N/A 74 67 78 S13G23 29.69F 6HR MIN TEMP: 69; 6HR MAX TEMP: 74; 6HR PCP: 0.01; KIRKSVILLE CLOUDY 72 68 87 S12 29.73F 6HR MIN TEMP: 69; 6HR MAX TEMP: 73; 6HR PCP: 0.02; $$ MOZ041-047>049-056>058-063>065-088>090-097-201900- ...EASTERN AND SOUTHERN MISSOURI... CITY SKY/WX TMP DP RH WIND PRES REMARKS ST. LOUIS INTL MOSUNNY 84 66 54 S16G24 29.80F 6HR MIN TEMP: 74; 6HR MAX TEMP: 84; SPIRIT OF STL MOSUNNY 84 67 56 SW13G20 29.78F COLUMBIA PTSUNNY 80 66 62 SW16G26 29.78F JEFFERSON CITY CLOUDY 79 65 62 SW12G21 29.78F ROLLA CLOUDY 79 66 64 SW14G23 29.82F OSAGE BEACH PTSUNNY 79 66 64 SW13 29.82F SPRINGFIELD CLOUDY 76 64 66 W16G24 29.87F BRANSON PTSUNNY 73 70 88 NW6 29.91R JOPLIN PTSUNNY 78 66 66 W18G24 29.89F WEST PLAINS LGT RAIN 75 71 87 SW5 29.87F $$ IAZ060-094-KSZ022-034>040-054-083-096-NEZ052-066-093-201900- ...KANSAS...SOUTHEAST NEBRASKA AND IOWA... CITY SKY/WX TMP DP RH WIND PRES REMARKS TOPEKA LGT RAIN 70 68 93 W13G23 29.82S 6HR MIN TEMP: 67; 6HR MAX TEMP: 70; 6HR PCP: 0.06; MANHATTAN CLOUDY 71 64 78 NW13G25 29.89S EMPORIA PTSUNNY 74 63 68 NW15G29 29.90S CHANUTE CLOUDY 76 66 71 W18 29.89S WICHITA CLOUDY 72 63 73 NW16G28 29.99S OMAHA HVY RAIN 67 64 90 N26G39 29.76S FOG LINCOLN CLOUDY 70 63 78 NW25G38 29.86S FALLS CITY LGT RAIN 66 66 100 NW22G39 29.71S FOG LAMONI CLOUDY 71 66 84 S9G20 29.64S DES MOINES CLOUDY 75 69 81 SE8 29.65S $$